カタリナ彗星

C/2017 S6 ( Catalina )

English version
Home page
Updated on February 13, 2018

---------------------------------------------------------------------

・ プロフィール

発見日 2017年9月30日
発見光度 17.9等
発見者 G. J. Leonard (Catalina Sky Survey)

・ 写真集

・ 軌道要素

Epoch 2018 Feb. 11.0 TT = JDT 2458160.5
T 2018 Feb. 26.93442 TT                                 MPCW
q   1.5429200            (2000.0)            P               Q
z  -0.0008703      Peri.  134.68772     +0.93845382     -0.00781064
 +/-0.0000181      Node   130.87473     -0.23727452     -0.74110015
e   1.0013427      Incl.  152.82680     +0.25100841     -0.67134906
From 209 observations 2017 Sept. 30-2018 Jan. 19, mean residual 0".6.

・ 星図

・ 光度変化

        m1 = 12.5 + 5 logΔ + 10.0 log r

---------------------------------------------------------------------

軌道要素はM.P.E.C. 2018-B155に掲載されたものです。
星図はステラナビゲータ Ver.10 (アストロアーツ) で作成したものです。
光度グラフはComet for Windowsで作成したものです。

---------------------------------------------------------------------

Copyright(C) Seiichi Yoshida (comet@aerith.net). All rights reserved.